Regional Weather Roundup
Issued by NWS

Home | Current Version | Previous Version | Graphics & Text | Print | Product List | Glossary On
Versions: 1 2 3 4 5 6 7 8 9 10 11 12 13 14 15 16 17 18 19 20 21 22 23 24 25 26 27 28 29 30 31 32 33 34 35 36 37 38 39 40 41 42 43 44 45 46 47 48 49 50
000
ASUS43 KLSX 070607
RWRMO

WEATHER SUMMARY FOR MISSOURI
NATIONAL WEATHER SERVICE SPRINGFIELD MO
100 AM CDT TUE JUL 07 2015

NOTE: "FAIR" INDICATES FEW OR NO CLOUDS BELOW 12,000 FEET WITH NO
       SIGNIFICANT WEATHER AND/OR OBSTRUCTIONS TO VISIBILITY.
       CURRENT SKY AND/OR WEATHER CONDITIONS ARE NOT AVAILABLE FOR
       CHILLICOTHE AND FARMINGTON.

MOZ001>031-035>038-043-044-053-054-070700-
...NORTHERN AND WESTERN MISSOURI...

CITY           SKY/WX    TMP DP  RH WIND       PRES   REMARKS
KANSAS CTY INT LGT RAIN  67  66  97 N15       29.96R FOG
6HR MIN TEMP:  67; 6HR MAX TEMP:  73; 6HR PCP:  0.15;

KANSAS C DTWN  LGT RAIN  71  69  93 N8        29.94R FOG
6HR MIN TEMP:  71; 6HR MAX TEMP:  73; 6HR PCP:  0.07;

LEE`S SUMMIT   LGT RAIN  71  70  96 CALM      29.96R FOG
6HR MIN TEMP:  71; 6HR MAX TEMP:  72; 6HR PCP:  0.32;

ST JOSEPH      RAIN      64  61  90 MISG      30.00R FOG
6HR MIN TEMP:  64; 6HR MAX TEMP:  73; 6HR PCP:  0.52;

CHILLICOTHE      N/A     69  65  86 N12G21    29.95R
6HR MIN TEMP:  69; 6HR MAX TEMP:  74; 6HR PCP:  0.39;

KIRKSVILLE     LGT RAIN  68  66  93 N16G24    29.92R FOG
6HR MIN TEMP:  68; 6HR MAX TEMP:  77; 6HR PCP:  0.34;


$$
MOZ066>068-077>081-088>096-101>105-070700-
...SOUTHWEST MISSOURI...

CITY           SKY/WX    TMP DP  RH WIND       PRES   REMARKS
SPRINGFIELD    CLOUDY    77  71  82 SW8       29.95F
6HR MIN TEMP:  77; 6HR MAX TEMP:  81;

JOPLIN         RAIN      70  69  97 SE5       29.95F
6HR MIN TEMP:  69; 6HR MAX TEMP:  83; 6HR PCP:  0.76;


$$
MOZ032>034-039>042-045>050-055>058-069>072-070700-
...CENTRAL MISSOURI...

CITY           SKY/WX    TMP DP  RH WIND       PRES   REMARKS
COLUMBIA       CLOUDY    72  70  93 NW10      29.90R
6HR MIN TEMP:  72; 6HR MAX TEMP:  82; 6HR PCP:  0.28;

JEFFERSON CITY LGT RAIN  75  70  84 W12       29.90R
6HR MIN TEMP:  75; 6HR MAX TEMP:  84; 6HR PCP: TRACE;

ROLLA          CLOUDY    77  72  84 S13       29.92S
6HR MIN TEMP:  76; 6HR MAX TEMP:  81;

SEDALIA        CLOUDY    73  70  90 W8        29.93F
6HR MIN TEMP:  73; 6HR MAX TEMP:  83; 6HR PCP:  0.12;

WHITEMAN AFB   DRIZZLE   72  72  99 W10       29.92S
WARRENSBURG    CLOUDY    70  70 100 SW7       29.94R
OSAGE BEACH    CLOUDY    72  68  88 NW6       29.94R

$$
MOZ051-052-059>065-070700-
...EAST CENTRAL MISSOURI...

CITY           SKY/WX    TMP DP  RH WIND       PRES   REMARKS
ST LOUIS INTL  CLOUDY    81  73  76 S13       29.89F
6HR MIN TEMP:  81; 6HR MAX TEMP:  85;

SPIRIT OF STL  CLOUDY    79  74  84 S9        29.87F
6HR MIN TEMP:  79; 6HR MAX TEMP:  84;

ST CHARLES     CLOUDY    80  74  81 S9        29.87S HAZE
6HR MIN TEMP:  78; 6HR MAX TEMP:  82;


$$
MOZ072>076-082>087-097>100-106>115-070700-
...SOUTH CENTRAL AND SOUTHEAST MISSOURI...

CITY           SKY/WX    TMP DP  RH WIND       PRES   REMARKS
CAPE GIRARDEAU MOCLDY    76  72  87 SW14      29.96F
6HR MIN TEMP:  76; 6HR MAX TEMP:  83;

FARMINGTON     CLOUDY    75  73  94 S10       29.99F
6HR MIN TEMP:  75; 6HR MAX TEMP:  82;

POPLAR BLUFF   CLOUDY    75  71  87 S7        29.97F
6HR MIN TEMP:  75; 6HR MAX TEMP:  83; 6HR PCP:  0.17;

WEST PLAINS    CLOUDY    77  71  82 S10       29.99F
6HR MIN TEMP:  77; 6HR MAX TEMP:  82;


$$



USA.gov is the U.S. government's official web portal to all federal, state and local government web resources and services.